www.pogodaiklimat.ru

Погода и климат >> Архив погоды >> Россия >> Крым >> Ангарский Перевал


ПОГОДА на Ангарском Перевале

  • Прогноз погоды на Ангарском Перевале
  • Монитор погоды на Ангарском Перевале

АРХИВ ПОГОДЫ на Ангарском Перевале

Время (UTC), дата Ветер
(напр.,м/с)
 
Видим.   Явления Облачность Т
(С)
Тd
(С)
f
(%)
Тe
(С)
Тes
(С)
Комфортность P
(гПа)
Po
(гПа)
Тmin
(С)
Tmax
(С)
R
(мм)
R24
(мм)
S
(см)
09 11.02 ЮЗ 1 200 м туман {ливн. осадки} ?/? -0.1 -0.1 100 -2 -2 1019.4 926.8
12 11.02 Ю 3 200 м туман {ливн. осадки} ?/? +0.1 +0.1 100 -5 -5 1018.1 925.7
15 11.02 Ю 4 200 м туман ?/? +0.3 +0.3 100 -5 -5 1017.7 925.4 3
18 11.02 Ю 4 500 м туман ?/? +0.4 +0.4 100 -5 -5 1017.0 924.8 +0.4 0.0
21 11.02 Ю 3 4000 м туман на расстоянии 10/10 200 м
[Cb cap]
+1.0 +0.5 96 -4 -4 1015.9 924.0
00 12.02 Ю 2 20 км {туман} 5/3 300 м
[Cu med, cong Ci fib]
+0.2 -0.9 92 -4 -4 1015.9 923.7
03 12.02 Ю 3 20 км 4/0
[Ci fib]
0.0 -1.1 92 -5 -5 1015.1 922.9 -0.4
06 12.02 Ю 2 20 км 9/0
[Ac As]
+1.1 +0.3 94 -3 -2 1014.4 922.6 -0.4 1
09 12.02 Ю 2 20 км 9/3 300 м
[Sc Ac trans Ci fib]
+5.1 +3.4 89 +2 +5 1012.5 922.2
12 12.02 Ю 1 10 км 9/8 300 м
[Sc Ac trans Ci fib]
+5.1 +4.2 94 +4 +4 1011.8 921.6
15 12.02 Ю 2 20 км в посл. час ливневой дождь 10/8 600 м
[Cb cap Ac und]
+4.7 +3.2 90 +2 +2 1012.7 922.3 0.3
18 12.02 Ю 3 20 км {ливн. осадки} 10/8 600 м
[Cb cap Ac und]
+5.2 +2.5 83 +2 +2 1013.7 923.3 +6.3 0.3
21 12.02 Ю 1 20 км слаб. ливневой дождь 10/10 600 м
[Cb cap]
+5.4 +2.5 82 +4 +4 1014.4 924.0
00 13.02 З 4-12
{12}
10 км ливневой дождь 10/10 600 м
[Cb cap]
+3.9 +0.8 80 -1 -1 1016.4 925.4
03 13.02 СЗ 3-10
{12}
20 км {ливн. осадки} 3/3 300 м
[Sc]
+1.2 +0.1 92 -3 -3 1017.3 925.3 +1.1 3
06 13.02 С 3
{11}
200 м туман {ливн. осадки} ?/? -0.3 -0.3 100 -5 -5 1021.6 928.7 -0.3 3
12 13.02 СЗ 2 50 км {туман} 10/3 300 м
[Sc As op]
+1.8 -1.0 82 -1 -1 1023.7 931.3
15 13.02 СЗ 2 50 км 9/3 300 м
[Sc As trans Cs]
-0.7 -1.6 94 -5 -5 1025.6 932.2
18 13.02 С 3 50 км 9/0
[Ac trans Cs]
-1.9 -3.4 89 -7 -7 1027.1 933.2 +2.1
21 13.02 СЗ 2 50 км 10/0
[Ac As Cs]
-1.9 -4.1 85 -6 -6 1026.9 933.0
00 14.02 СЗ 2 50 км 6/0
[Ci fib]
-2.4 -5.3 80 -6 -6 1026.8 932.7
03 14.02 СЗ 2 50 км 4/0
[Ci fib]
-4.7 -6.4 88 -9 -9 1027.1 932.2 -4.7
06 14.02 СЗ 2 50 км 3/0
[Ci fib]
-4.6 -9.0 71 -9 -7 1027.1 932.2 -4.7
09 14.02 С 2 20 км 8/3
[Cb calv Ci fib]
+0.6 -9.9 45 -2 +2 1024.8 931.8
12 14.02 ЮЗ 2 20 км 9/0
[Ci fib]
+1.6 -5.0 61 -1 +2 1022.7 930.3
15 14.02 СЗ 1 20 км 8/0
[Ci fib]
-1.4 -2.9 90 -4 -4 1023.3 929.9
18 14.02 штиль 0 20 км ясно -2.7 -6.5 75 -4 -4 1024.0 930.1 +2.7
21 14.02 штиль 0 20 км ясно -3.9 -11.1 57 -4 -4 1024.3 929.9
00 15.02 СЗ 1 20 км ясно -4.0 -7.7 75 -6 -6 1024.3 929.9
03 15.02 СЗ 1 20 км 8/8 600 м
[Sc]
-2.8 -6.9 73 -5 -5 1023.4 929.5 -4.4
06 15.02 СЗ 1 20 км 3/0
[Ac lent]
-2.9 -9.1 62 -5 -4 1024.2 930.1 -4.4
09 15.02 штиль 0 50 км 9/0
[Ac lent Ci fib]
+3.7 -12.0 31 +4 +9 1022.7 930.8
12 15.02 СЗ 2 50 км 3/0
[Ci fib]
+4.3 -10.7 33 +3 +6 1022.0 930.5
15 15.02 СЗ 2 50 км 3/0
[Ci fib]
-1.3 -10.5 50 -4 -4 1024.7 931.1
18 15.02 СЗ 2 50 км ясно -3.5 -12.5 50 -7 -7 1026.4 931.9 +5.5
21 15.02 СЗ 2 50 км ясно -4.1 -12.5 52 -8 -8 1025.9 931.2
00 16.02 СЗ 2 50 км ясно -5.4 -11.5 62 -9 -9 1026.2 931.1
03 16.02 СЗ 2 50 км ясно -6.1 -10.6 70 -10 -10 1026.6 931.2 -6.3
06 16.02 СЗ 2 20 км 1/0
[Ci fib]
-5.6 -9.5 74 -10 -8 1026.7 931.5 -6.9
09 16.02 СЗ 1 20 км 6/0
[Ac trans Ci fib]
-0.9 -5.1 73 -3 +3 1025.8 932.3
12 16.02 С 2 50 км 3/1 300 м
[Cu med, cong Ci fib]
+1.1 -3.8 70 -2 +2 1024.2 931.5
18 16.02 СЗ 3 4000 м туман на расстоянии 10/10 200 м
[Sc]
-2.6 -3.3 95 -8 -8 1026.3 932.2 +1.5
21 16.02 СЗ 3 200 м переохл. туман ?/? -2.6 -2.7 99 -8 -8 1025.9 931.9
00 17.02 СЗ 3 200 м переохл. туман ?/? -2.6 -2.7 99 -8 -8 1025.5 931.5
03 17.02 СЗ 4 500 м переохл. туман ?/? -1.4 -1.4 100 -7 -7 1024.5 931.0 -3.3
06 17.02 СЗ 2 10 км в посл. час туман 3/1 200 м
[Sc Ac lent Cc]
-0.6 -1.6 93 -4 -3 1024.9 931.6 -3.3
09 17.02 СЗ 3 50 км ясно +6.0 +1.2 71 +3 +9 1022.5 931.6
12 17.02 СЗ 2 50 км ясно +9.8 -0.1 50 +9 +13 1019.8 930.2
15 17.02 СЗ 4-10
{11}
50 км 3/1 1000 м
[Sc Ac lent Cc]
+7.0 -1.5 55 +4 +4 1019.2 928.8
18 17.02 СЗ 6-13
{16}
50 км 3/0
[Ac lent]
+7.3 -4.8 42 +4 +4 1018.1 927.9 +9.8
21 17.02 СЗ 7-15
{16}
50 км 1/1 300 м
[Cu med, cong]
+4.4 +0.8 77 -1 -1 1017.6 926.6
00 18.02 СЗ 6-13
{17}
20 км 4/4 300 м
[Cu med, cong]
+3.3 +1.0 85 -2 -2 1017.7 926.4
03 18.02 СЗ 5-12
{15}
20 км 10/10 300 м
[Cu Sc]
+2.1 +1.0 92 -4 -4 1016.6 925.0 +2.1

 

Местоположение метеостанции Ангарский Перевал (Крым, Россия): широта 44.75 долгота 34.35 высота над уровнем моря 769 м.

В архиве по умолчанию представлена погода на Ангарском Перевале за последнюю неделю. Архивные данные за месяц целиком и за предыдущие месяцы, начиная с января 2011 года, Вы можете получить, выбрав интересующий диапазон дат из раскрывающегося списка и нажав кнопку "Ввод!".


*Определитесь, кто Вы:
робот инопланетянин человек

Внимание! Время в таблицах - всемирное. Для получения местного времени необходимо прибавить поправку, которая равна 3 ч.

Смотрите также архив погоды в соседних городах и на ближайших метеорологических станциях:

Погода в Алуште (Крым, Россия) (10 км)
Погода в Никитском саду (Крым, Россия) (27 км)
Погода в Симферополе город (Крым, Россия) (29 км)
Погода в Почтовом (Крым, Россия) (33 км)
Погода в Ялте (Крым, Россия) (33 км)
Погода на Ай-Петри (Крым, Россия) (38 км)
Погода в Белогорске (Крым, Россия) (39 км)
Погода в Симферополе (Крым, Россия) (43 км)
Погода в Севастополе (город Севастополь, Россия) (66 км)
Погода в Карадаге (Крым, Россия) (69 км)

Пояснения к столбцам:

Ветер - указаны скорость ветра в м/с - средняя за 10 мин, порывы в срок и между сроками (в фигурных скобках) и направление, откуда дует ветер: С - северный, СВ - северо-восточный, В - восточный, ЮВ - юго-восточный, Ю - южный, ЮЗ - юго-западный, З - западный, СЗ - северо-западный.
Видимость - горизонтальная дальность видимости в метрах или километрах. При видимости от 1 до 10 км при отсутствии осадков обычно наблюдается дымка, при ухудшении видимости до 1 км и менее - туман. В сухую погоду видимость может ухудшаться дымом, пылью или мглою.
Явления - указаны атмосферные явления, наблюдавшиеся в срок или в последний час перед сроком; фигурными скобками обозначены явления, наблюдавшиеся между сроками (за 1-3 часа до срока); квадратными скобками обозначены град или гололедные отложения с указанием их диаметра в мм.
Облачность - указаны через наклонную черту общая и нижняя облачность в баллах и высота нижней границы облаков в метрах; квадратными скобками обозначены формы облаков: Ci - перистые, Cs - перисто-слоистые, Cc - перисто-кучевые, Ac - высококучевые, As - высокослоистые, Sc - слоисто-кучевые, Ns - слоисто-дождевые, Cu - кучевые, Cb - кучево-дождевые. Подробнее классификацию облаков см. в Атласе облаков (PDF).
T - Температура воздуха - температура, измеренная на высоте 2 м над землей.
Td - Температура точки росы - температура, при понижении до которой содержащийся в воздухе водяной пар достигнет насыщения.
f - Относительная влажность воздуха - влажноcть воздуха, измеренная на высоте 2 м над землей.
Te - Эффективная температура - температура, которую ощущает одетый по сезону человек в тени. Характеристика душности погоды. При расчете учитывается влияние влажности воздуха и скорости ветра на теплоощущения человека.
Tes - Эффективная температура на солнце - температура, которую ощущает человек, с поправкой на солнечный нагрев. Характеристика знойности погоды. Зависит от высоты солнца над горизонтом, облачности и скорости ветра. Ночью, в пасмурную погоду, а также при ветре 12 м/с и более поправка равна нулю.
P - Атмосферное давление - приведенное к уровню моря атмосферное давление.
Po - Атмосферное давление - измеренное на уровне метеостанции атмосферное давление.
Tmin - Минимальная температура - минимум температуры воздуха на высоте 2 м над землей.
Tmax - Максимальная температура - максимум температуры воздуха на высоте 2 м над землей.
R - Количество осадков - Количество выпавших осадков за период времени, мм. При наведении курсора мыши на число - период времени, за который выпало указанное количество осадков.
R24 - Количество осадков - Количество выпавших осадков за 24 часа, мм.
S - Снежный покров - Высота снежного покрова, см. При наведении курсора мыши на число - состояние снежного покрова и степень покрытия местности в баллах.